Regional Weather Roundup
Issued by NWS Midland/Odessa, TX

Skip options and go directly to product.
Home | Oldest Version | Next Version | Current Version | All | Text Only | Save Text | Print | Product List | Glossary On

Skip product version selection by date and time.   
889
ASUS44 KMAF 300201
RWRMAF
MIDLAND AREA WEATHER ROUNDUP
NATIONAL WEATHER SERVICE MIDLAND TX
900 PM CDT SUN MAY 29 2016

...IN SOUTHWEST TEXAS AND SOUTHEAST NEW MEXICO...

CITY           SKY/WX    TMP DP  RH WIND       PRES   REMARKS
ALPINE         CLOUDY    76  55  48 SE6       30.15S
ANDREWS        FAIR      77  62  59 SW5       30.04R
ARTESIA        CLEAR     77  55  47 SE8       30.00R
BIG SPRING     PTCLDY    77  63  61 S6        30.04R
CARLSBAD       CLEAR     78  48  34 S10       29.97R
DRYDEN           N/A     80  68  66 SE13G21   30.00R
FORT STOCKTON  NOT AVBL
GUAD PASS      NOT AVBL
HOBBS          CLEAR     70  63  78 E8        30.05R
MARFA          CLOUDY    73  56  54 SE12      30.14R
MIDLAND AIRPK  CLOUDY    80  64  57 S8        30.03R
MIDLAND INTL   CLEAR     79  64  60 S10       30.03R
ODESSA         CLEAR     77  63  61 S14       30.03R
PECOS          CLEAR     83  62  49 E12       29.97R
PRESIDIO       FAIR      89  51  27 NE16G23   29.96R
SEMINOLE       CLOUDY    77  60  55 S3        30.04F
SNYDER           N/A     74  64  69 N18G25    30.04R
WINK           NOT AVBL
$$
...OTHER STATIONS IN TEXAS...

CITY           SKY/WX    TMP DP  RH WIND       PRES   REMARKS
ABILENE        MOCLDY    80  66  62 SE14      29.95F
AMARILLO       LGT RAIN  57  51  80 SE31G44   30.14S
AUSTIN         PTCLDY    79  68  69 S9        30.00R
BROWNSVILLE    CLOUDY    81  75  82 SE10      29.99S
CORPUS CHRISTI CLOUDY    81  74  79 SE16      29.97F
DALLAS FTW     CLOUDY    74  67  78 E8        30.03R
DEL RIO        CLOUDY    83  72  69 SE9       29.96R
EL PASO        PTCLDY    85  34  16 S14       29.99R
HOUSTON INT    PTCLDY    78  67  68 SE9       30.02R
LUBBOCK        TSTM      59  56  89 N28G38    30.16R
SAN ANGELO     CLOUDY    82  67  60 S6        29.97R
SAN ANTONIO    MOCLDY    79  67  66 SE13      30.02R
WACO           CLEAR     82  69  64 SE9       30.00R
WICHITA FALLS  NOT AVBL
$$
...OTHER LOCATIONS IN NEW MEXICO...

CITY           SKY/WX    TMP DP  RH WIND       PRES   REMARKS
ALAMAGORDO     CLEAR     84  19   9 SW8       29.99S
ALBUQUERQUE    PTCLDY    81  19  10 S15       30.02R
CANNON AFB     CLOUDY    57  53  87 E25G36    30.13R
CLOVIS         CLOUDY    55  48  76 E30G38    30.15R
HOLLOMAN AFB   CLEAR     86  19   8 SW7       29.97R
ROSWELL        CLEAR     77  45  32 SE10      30.01S
RUIDOSO          N/A     66  41  39 SE16G23   30.21R
SANTA FE       CLEAR     75   8   7 SW10      30.09R
TRUTH OR CONSE CLEAR     83  23  11 S16       30.00R
TUCUMCARI      CLOUDY    65  53  65 SE28      30.06R
$$

USA.gov is the U.S. government's official web portal to all federal, state and local government web resources and services.